EHI
0 0 0 0 0 0 0 0 0 0 0 0 0 0 0 0 0 0 0 0 0 0 0 0 0 0 0 0 0 0 0 0 0 0 0 0 0 0
0 0 0 0 0 0 0 0 0 0 0 0 0 0 0 0 0 0 0 0 0 0 0 0 0 0 0 0 0 0 0 0 0 0 0 0 0 0
0 0 0 0 0 0 0 0 0 0 0 0 0 0 0 0 0 0 0 0 0 0 0 0 0 0 0 0 0 0 0 0 0 0 0 0 0 0
0 0 0 0 0 0 0 0 0 0 0 0 0 0 0 0 0 0 0 0 0 0 0 0 0 0 0 0 0 0 0 0 0 0 0 0 0 0
0 0 0 0 0 0 0 0 0 0 0 0 0 0 0 0 0 0 0 0 0 0 0 0 0 0 0 0 0 0 0 0 0 0 0 0 0 0
0 0 0 0 0 0 0 0 0 0 0 0 0 0 0 0 0 0 0 0 0 0 0 0 0 0 0 0 0 0 0 0 0 0 0 0 0 0
0 0 0 0 0 0 0 0 0 0 0 0 0 0 0 0 0 0 0 0 0 0 0 0 0 0 0 0 0 0 0 0 0 0 0 0 0 0
0 0 0 0 0 0 0 0 0 0 0 0 0 0 0 0 0 0 0 0 0 0 0 0 0 0 0 0 0 0 0 0 0 0 0 0 0 0
0 0 0 0 0 0 0 0 0 0 0 0 0 0 0 0 0 0 0 0 0 0 0 0 0 0 0 0 0 0 0 0 0 0 0 0 0 0
0 0 0 0 0 0 0 0 0 0 0 0 0 0 0 0 0 0 0 0 0 0 0 0 0 0 0 0 0 0 0 0 0 0 0 0 0 0
0 0 0 0 0 0 0 0 0 0 0 0 0 0 0 0 0 0 0 0 0 0 0 0 0 0 0 0 0 0 0 0 0 0 0 0 0 0
0 0 0 0 0 0 0 0 0 0 0 0 0 0 0 0 0 0 0 0 0 0 0 0 0 0 0 0 0 0 0 0 0 0 0 0 0 0
0 0 0 0 0 0 0 0 0 0 0 0 0 0 0 0 0 0 0 0 0 0 0 0 0 0 0 0 0 0 0 0 0 0 0 0 0 0
0 0 0 0 0 0 0 0 0 0 0 0 0 0 0 0 0 0 0 0 0 0 0 0 0 0 0 0 0 0 0 0 0 0 0 0 0 0
0 0 0 0 0 0 0 0 0 0 0 0 0 0 0 0 0 0 0 0 0 0 0 0 0 0 0 0 0 0 0 0 0 0 0 0 0 0
0 0 0 0 0 0 0 0 0 0 0 0 0 0 0 0 0 0 0 0 0 0 0 0 0 0 0 0 0 0 0 0 0 0 0 0 0 0
0 0 0 0 0 0 0 0 0 0 0 0 0 0 0 0 0 0 0 0 0 0 0 0 0 0 0 0 0 0 0 0 0 0 0 0 0 0
0 0 0 0 0 0 0 0 0 0 0 0 0 0 0 0 0 0 0 0 0 0 0 0 0 0 0 0 0 0 0 0 0 0 0 0 0 0
0 0 0 0 0 0 0 0 0 0 0 0 0 0 0 0 0 0 0 0 0 0 0 0 0 0 0 0 0 0 0 0 0 0 0 0 0 0
0 0 0 0 0 0 0 0 0 0 0 0 0 0 0 0 0 0 0 0 0 0 0 0 0 0 0 0 0 0 0 0 0 0 0 0 0 0
0 0 0 0 0 0 0 0 0 0 0 0 0 0 0 0 0 0 0 0 0 0 0 0 0 0 0 0 0 0 0 0 0 0 0 0 0 0
0 0 0 0 0 0 0 0 0 0 0 0 0 0 0 0 0 0 0 0 0 0 0 0 0 0 0 0 0 0 0 0 0 0 0 0 0 0
0 0 0 0 0 0 0 0 0 0 0 0 0 0 0 0 0 0 0 0 0 0 0 0 0 0 0 0 0 0 0 0 0 0 0 0 0 0
Wind_Speed
6 6 4 3 3 3 2 1 2 1 2 3 2 3 4 5 8 8 8 13 16 17 17 18 18 19 20 21 22 22 23 23 24 24 24 25 25 25
4 5 4 2 2 2 1 1 1 2 3 2 3 5 7 8 11 9 9 16 16 17 17 18 19 19 20 21 22 22 22 22 23 23 24 24 24 24
4 4 3 2 1 1 1 1 1 2 3 4 3 5 7 9 10 9 9 9 9 16 18 19 19 20 20 21 21 21 21 22 22 23 23 24 24 24
3 3 2 1 1 0 1 1 2 3 4 5 5 5 7 9 10 11 9 8 9 15 18 19 20 20 19 19 20 19 19 19 21 22 22 23 23 24
3 3 2 2 2 2 2 2 2 3 3 4 6 5 6 7 8 8 10 9 10 11 15 17 18 18 18 18 18 17 16 16 18 19 20 21 21 22
4 3 3 3 3 3 3 3 3 3 4 5 7 7 7 7 6 7 9 9 9 10 11 12 15 18 19 19 18 18 16 15 16 17 17 17 18 19
5 5 5 7 6 4 4 4 3 4 5 6 8 7 8 8 7 6 9 10 11 8 7 9 10 10 11 13 15 16 16 16 16 16 15 15 15 15
6 7 7 6 9 9 10 9 7 7 8 7 8 9 11 10 9 8 8 9 7 5 7 10 9 10 9 9 12 16 16 16 15 15 14 14 13 13
5 6 6 7 8 6 9 11 11 13 13 9 10 11 11 10 9 10 9 9 9 9 8 9 9 10 9 10 14 15 15 15 14 14 13 13 12 12
6 6 6 8 7 8 8 9 10 11 11 8 8 10 10 10 9 8 9 9 9 8 6 7 8 9 10 9 11 13 14 14 14 14 12 12 11 11
7 7 7 8 10 11 9 10 11 11 10 9 10 12 13 14 10 5 5 6 8 8 4 4 5 8 9 7 8 12 13 14 14 14 13 11 11 10
7 8 9 9 11 12 9 8 10 10 10 11 9 8 8 7 7 4 4 5 6 6 3 4 5 5 5 4 7 8 8 10 12 12 11 10 8 5
7 7 8 12 14 14 11 7 9 10 9 8 7 7 6 5 5 4 3 4 5 5 5 5 4 4 4 5 6 7 7 7 7 6 7 7 5 3
7 7 8 14 16 15 10 9 11 9 4 4 5 5 5 5 6 6 6 5 5 7 8 6 4 5 5 5 5 7 8 6 5 5 4 4 3 1
6 11 14 15 13 9 9 11 8 4 4 4 5 5 4 5 6 6 6 6 6 6 5 4 4 5 4 5 6 5 5 5 6 5 4 4 3 2
7 10 12 10 7 7 7 6 4 4 3 4 4 5 5 5 4 4 4 5 5 6 6 7 6 5 3 6 6 6 6 5 6 5 5 5 5 5
8 5 5 6 7 7 7 6 5 5 5 4 4 5 5 5 5 4 3 3 4 5 7 7 7 5 1 3 5 6 6 5 6 6 5 5 6 6
5 4 5 5 6 6 7 7 6 6 6 5 5 5 5 5 5 4 3 3 4 5 6 6 7 6 4 1 5 7 6 6 5 6 5 5 6 7
4 5 5 6 6 6 6 6 6 7 6 6 6 6 5 5 4 5 4 4 4 5 5 5 6 6 7 7 6 8 7 5 5 5 5 5 5 5
4 5 5 6 6 6 6 6 7 7 6 6 6 6 5 5 5 5 4 4 4 5 5 5 6 6 6 5 5 5 10 7 5 5 4 3 3 3
5 5 5 6 6 6 6 6 6 6 7 6 6 6 6 5 5 4 4 4 4 4 6 6 5 7 4 3 4 5 6 8 8 6 5 4 4 5
5 6 6 6 6 6 6 6 6 6 7 6 6 6 6 5 5 5 4 4 3 4 4 4 5 6 6 7 7 7 7 6 6 10 12 9 4 4
6 6 6 6 6 6 6 7 8 7 6 6 6 6 6 5 4 4 4 3 3 4 4 5 5 5 5 6 6 6 8 8 7 7 8 10 11 10
Wind_Direction
83 83 79 63 58 61 83 122 156 243 280 297 292 287 311 308 300 302 299 299 298 295 293 290 287 285 284 284 283 282 281 281 280 280 279 279 279 278
76 81 80 76 69 68 84 107 153 190 243 268 270 289 301 303 302 304 298 298 296 294 291 289 287 286 284 284 283 282 281 280 280 281 281 280 280 280
57 72 73 88 95 101 129 167 186 194 240 270 269 284 292 296 304 303 297 292 289 290 293 292 290 289 287 286 286 285 284 283 283 282 281 280 280 279
39 43 35 28 13 295 229 230 227 216 232 274 289 292 288 294 295 298 298 298 293 293 292 292 292 292 291 289 288 286 284 282 282 281 281 280 278 278
22 15 353 342 316 287 266 257 253 246 228 259 289 292 291 293 297 295 297 294 295 295 294 292 294 295 295 292 289 286 281 277 276 278 278 278 277 277
8 354 331 309 287 282 279 273 264 268 268 275 289 295 292 293 289 299 307 307 305 303 297 298 296 297 295 292 290 289 284 279 276 275 274 273 274 274
4 353 336 334 337 325 310 288 271 277 289 293 295 296 298 302 302 302 303 307 303 296 303 305 302 297 296 294 293 291 287 283 281 277 274 270 267 266
355 345 334 338 339 334 327 319 302 292 292 290 291 292 295 297 298 301 303 306 307 305 305 305 304 300 299 295 290 289 287 287 286 282 277 271 267 264
341 335 331 326 330 321 321 319 309 298 288 280 279 282 289 293 298 300 299 302 298 301 302 298 304 302 303 300 296 294 294 293 292 288 280 274 269 265
325 317 311 311 315 323 320 312 305 299 293 283 269 276 281 286 284 286 292 294 290 289 283 288 301 306 308 305 298 295 296 299 300 298 290 281 272 266
317 313 308 304 306 316 318 310 307 305 303 291 281 281 282 283 283 283 291 301 307 309 299 274 291 305 304 298 302 300 300 303 303 301 296 288 278 269
319 314 312 308 307 312 311 303 301 305 313 317 316 314 308 303 298 271 275 292 303 304 297 295 293 308 300 293 308 313 314 310 307 303 300 296 290 270
314 315 313 315 314 312 309 290 281 290 301 306 313 317 321 322 320 310 275 263 288 292 295 307 296 300 290 300 308 317 320 320 320 314 311 310 304 267
303 307 307 310 312 313 313 305 305 306 303 314 322 324 324 324 320 315 305 288 263 267 286 297 288 305 309 307 309 317 323 328 329 326 331 339 351 7
301 305 309 311 315 318 320 323 327 332 332 329 325 312 300 299 305 311 313 317 314 306 306 301 299 299 306 314 320 319 320 328 342 348 1 13 16 22
324 318 317 316 320 319 324 334 340 331 320 310 304 298 300 308 311 315 315 330 336 336 335 339 340 331 320 328 328 333 337 338 345 358 14 29 31 30
319 320 335 342 348 348 343 337 336 341 340 325 311 311 314 320 320 324 319 328 339 341 344 347 348 344 315 335 341 348 350 353 360 3 17 36 34 28
329 334 338 342 342 338 336 333 332 340 335 328 323 319 319 322 323 329 334 336 341 345 349 350 352 359 3 41 19 358 357 0 4 12 19 29 33 28
355 345 342 339 336 332 331 328 323 325 324 326 325 325 325 326 330 336 344 347 351 351 351 353 360 1 8 11 8 13 5 359 4 17 23 29 32 28
357 346 341 338 336 335 334 332 328 331 336 337 335 335 336 333 337 344 351 355 356 1 7 10 8 4 3 355 347 357 11 13 4 4 2 6 19 9
347 344 340 338 336 335 333 333 332 331 336 338 340 342 343 342 346 351 357 3 11 14 15 12 358 351 358 11 21 19 19 29 35 23 357 358 14 23
345 342 340 341 340 338 337 337 337 340 344 345 341 341 342 345 350 356 4 15 21 20 18 13 11 20 28 33 31 26 25 28 43 49 44 38 27 23
345 340 340 343 344 341 340 340 340 338 341 340 337 338 340 344 349 2 13 22 27 31 30 26 26 31 31 29 28 27 28 29 31 39 45 42 56 64